Starlink 3611

operational
NORAD ID: 51779 Int'l Des: 2022-017 Owner: SPXS Country: US Constellation: starlink
LEOCIRCULAR

About Starlink 3611

Description loading...

Live Position

Loading 3D Globe...

Upcoming Passes

Altitude History

Altitude vs Time

uPlot chart will show altitude changes over time

Two-Line Element Set

1 51779U 22017M 26036.73089213 .00000880 00000-0 73368-4 0 9998
2 51779 53.2160 122.6385 0001521 91.4840 268.6326 15.08841403217748
Epoch: Feb 5, 2026 • Age: 8 hours

Current Status

Altitude 539.7 km
Velocity 7.59 km/s
Sub-Earth Point 9.15°N, 31.3°W
Launch Date Feb 25, 2022
Age 3.9 years
Type internet

Technical Details

Classification Payload
Mass 297.00 kg
Dry Mass 275.00 kg
Total Mass 297.00 kg
Length 0.20 m
Diameter 2.80 m
Span 9.00 m
Shape Box + pan
Manufacturer SPXS
Bus Type Starlink
Phase Status In Orbit
Owner/State SPXS/US

Large Constellations

Loading constellations...